Overview Statistics Trail Chart Weather Telemetry Raw packets
 

This is the latest recevied weather packets stored in our database for station/object NO3B-10. If no packets are shown the sender has not sent any weather packets the latest 10 day(s).

<< 1 2 3 4 5 6 >>
Time Temp. Humidity Pressure Rain* Wind** Luminosity Snow
1788486656 27.22° C 96% 1011.2 hPa 0 mm - - -
1788486401 27.22° C 96% 1011.2 hPa 0 mm - - -
1788483701 27.22° C 96% 1011.9 hPa 0 mm - - -
1788481001 27.78° C 93% 1012.1 hPa 0 mm - - -
1788480101 27.78° C 92% 1011.7 hPa 0 mm - - -
1788436904 22.78° C 100% 1014.7 hPa 0 mm - - -
1788436004 22.22° C 100% 1014.6 hPa 0 mm - - -
1788433304 21.67° C 100% 1014 hPa 0 mm - - -
1788432804 21.67° C 100% 1013.7 hPa 0 mm - - -
1788432404 21.67° C 100% 1013.7 hPa 0 mm - - -
1788430604 21.67° C 100% 1013.7 hPa 0 mm - - -
1788419807 22.22° C 100% 1013.4 hPa 0 mm - - -
1788418905 22.22° C 100% 1013.5 hPa 0 mm - - -
1788403608 22.22° C 100% 1014.2 hPa 0 mm - - -
1788400907 22.22° C 100% 1014.5 hPa 0 mm - - -
1788391008 23.33° C 100% 1014.7 hPa 0 mm - - -
1788390108 23.33° C 100% 1014.7 hPa 0 mm - - -
1788389208 23.33° C 99% 1015.1 hPa 0 mm - - -
1788385606 23.33° C 99% 1014.5 hPa 0 mm - - -
1788384707 23.33° C 99% 1014.7 hPa 0 mm - - -
1788383938 23.33° C 99% 1014.1 hPa 0 mm - - -
1788383807 23.33° C 99% 1014.1 hPa 0 mm - - -
1788382907 23.89° C 99% 1015.2 hPa 0 mm - - -
1788378409 22.78° C 98% 1015.8 hPa 19.56 mm - - -
1788354194 26.67° C 90% 1014.7 hPa 0 mm - - -

* Rain latest hour (hover to see other rain measurements)
** Current wind speed in m/s (hover to see current wind gust speed)